Time,TemperatureF,DewpointF,PressureIn,WindDirection,WindDirectionDegrees,WindSpeedMPH,WindSpeedGustMPH,Humidity,HourlyPrecipIn,Conditions,Clouds,dailyrainin,SoftwareType,DateUTC
2013-07-26 00:01:00,66.5,54.8,30.12,SE,124,3.0,3.0,66,0.00,,,0.00,WeatherCatV1.15B25,2013-07-26 07:01:00,
2013-07-26 00:06:00,66.6,54.5,30.12,ENE,57,2.0,2.0,65,0.00,,,0.00,WeatherCatV1.15B25,2013-07-26 07:06:00,
2013-07-26 00:11:00,66.6,54.5,30.12,ENE,57,2.0,6.0,65,0.00,,,0.00,WeatherCatV1.15B25,2013-07-26 07:11:00,
2013-07-26 00:16:00,66.6,54.5,30.12,NE,52,2.0,3.0,65,0.00,,,0.00,WeatherCatV1.15B25,2013-07-26 07:16:00,
2013-07-26 00:21:00,66.4,54.3,30.12,ENE,72,4.0,5.0,65,0.00,,,0.00,WeatherCatV1.15B25,2013-07-26 07:21:00,
2013-07-26 00:26:00,66.5,54.4,30.12,ESE,108,1.0,5.0,65,0.00,,,0.00,WeatherCatV1.15B25,2013-07-26 07:26:00,
2013-07-26 00:31:00,66.4,53.8,30.12,NE,50,2.0,2.0,64,0.00,,,0.00,WeatherCatV1.15B25,2013-07-26 07:31:00,
2013-07-26 00:36:00,66.2,53.7,30.12,NE,36,1.0,4.0,64,0.00,,,0.00,WeatherCatV1.15B25,2013-07-26 07:36:00,
2013-07-26 00:41:00,65.9,53.4,30.12,NW,314,1.0,1.0,64,0.00,,,0.00,WeatherCatV1.15B25,2013-07-26 07:41:00,
2013-07-26 00:46:00,65.4,53.3,30.12,NW,316,0.0,0.0,65,0.00,,,0.00,WeatherCatV1.15B25,2013-07-26 07:46:00,
2013-07-26 00:51:00,64.6,53.4,30.12,NW,311,1.0,1.0,67,0.00,,,0.00,WeatherCatV1.15B25,2013-07-26 07:51:00,
2013-07-26 00:56:00,63.9,53.1,30.12,NW,311,0.0,1.0,68,0.00,,,0.00,WeatherCatV1.15B25,2013-07-26 07:56:00,
2013-07-26 01:01:00,63.5,53.5,30.12,West,264,1.0,1.0,70,0.00,,,0.00,WeatherCatV1.15B25,2013-07-26 08:01:00,
2013-07-26 01:06:00,63.2,53.6,30.12,SSW,211,1.0,1.0,71,0.00,,,0.00,WeatherCatV1.15B25,2013-07-26 08:06:00,
2013-07-26 01:11:00,63.0,53.1,30.13,SE,140,0.0,0.0,70,0.00,,,0.00,WeatherCatV1.15B25,2013-07-26 08:11:00,
2013-07-26 01:16:00,62.9,53.0,30.12,SE,139,0.0,0.0,70,0.00,,,0.00,WeatherCatV1.15B25,2013-07-26 08:16:00,
2013-07-26 01:21:00,62.9,52.6,30.13,West,277,3.0,3.0,69,0.00,,,0.00,WeatherCatV1.15B25,2013-07-26 08:21:00,
2013-07-26 01:26:00,63.3,53.3,30.13,West,277,1.0,4.0,70,0.00,,,0.00,WeatherCatV1.15B25,2013-07-26 08:26:00,
2013-07-26 01:31:00,63.6,52.8,30.13,East,82,0.0,2.0,68,0.00,,,0.00,WeatherCatV1.15B25,2013-07-26 08:31:00,
2013-07-26 01:36:00,63.7,52.5,30.13,NW,310,2.0,4.0,67,0.00,,,0.00,WeatherCatV1.15B25,2013-07-26 08:36:00,
2013-07-26 01:41:00,63.5,52.3,30.13,WNW,290,0.0,0.0,67,0.00,,,0.00,WeatherCatV1.15B25,2013-07-26 08:41:00,
2013-07-26 01:46:00,63.8,52.2,30.13,NNE,20,4.0,7.0,66,0.00,,,0.00,WeatherCatV1.15B25,2013-07-26 08:46:00,
2013-07-26 01:51:00,64.2,52.2,30.13,NE,53,7.0,8.0,65,0.00,,,0.00,WeatherCatV1.15B25,2013-07-26 08:51:00,
2013-07-26 01:56:00,64.5,52.5,30.13,NE,43,1.0,4.0,65,0.00,,,0.00,WeatherCatV1.15B25,2013-07-26 08:56:00,
2013-07-26 02:01:00,64.3,52.3,30.13,NNW,347,2.0,9.0,65,0.00,,,0.00,WeatherCatV1.15B25,2013-07-26 09:01:00,
2013-07-26 02:06:00,64.2,52.6,30.14,East,80,2.0,3.0,66,0.00,,,0.00,WeatherCatV1.15B25,2013-07-26 09:06:00,
2013-07-26 02:11:00,63.8,52.2,30.14,ENE,72,1.0,2.0,66,0.00,,,0.00,WeatherCatV1.15B25,2013-07-26 09:11:00,
2013-07-26 02:16:00,63.2,52.1,30.14,ENE,76,1.0,3.0,67,0.00,,,0.00,WeatherCatV1.15B25,2013-07-26 09:16:00,
2013-07-26 02:21:00,63.2,52.5,30.14,SE,136,1.0,4.0,68,0.00,,,0.00,WeatherCatV1.15B25,2013-07-26 09:21:00,
2013-07-26 02:26:00,63.3,52.2,30.14,SE,140,2.0,3.0,67,0.00,,,0.00,WeatherCatV1.15B25,2013-07-26 09:26:00,
2013-07-26 02:31:00,62.9,52.2,30.14,SSE,156,0.0,0.0,68,0.00,,,0.00,WeatherCatV1.15B25,2013-07-26 09:31:00,
2013-07-26 02:36:00,62.1,51.8,30.14,SE,132,1.0,1.0,69,0.00,,,0.00,WeatherCatV1.15B25,2013-07-26 09:36:00,
2013-07-26 02:41:00,61.7,51.8,30.14,SE,143,1.0,3.0,70,0.00,,,0.00,WeatherCatV1.15B25,2013-07-26 09:41:00,
2013-07-26 02:46:00,61.3,51.8,30.14,SE,128,1.0,1.0,71,0.00,,,0.00,WeatherCatV1.15B25,2013-07-26 09:46:00,
2013-07-26 02:51:00,60.7,51.6,30.14,SE,129,0.0,1.0,72,0.00,,,0.00,WeatherCatV1.15B25,2013-07-26 09:51:00,
2013-07-26 02:56:00,60.4,51.7,30.14,East,97,1.0,1.0,73,0.00,,,0.00,WeatherCatV1.15B25,2013-07-26 09:56:00,
2013-07-26 03:01:00,60.1,51.8,30.14,ESE,110,1.0,3.0,74,0.00,,,0.00,WeatherCatV1.15B25,2013-07-26 10:01:00,
2013-07-26 03:06:00,59.8,51.5,30.14,ESE,109,0.0,1.0,74,0.00,,,0.00,WeatherCatV1.15B25,2013-07-26 10:06:00,
2013-07-26 03:11:00,59.5,51.6,30.14,SE,132,1.0,1.0,75,0.00,,,0.00,WeatherCatV1.15B25,2013-07-26 10:11:00,
2013-07-26 03:16:00,59.1,51.2,30.14,SE,132,0.0,1.0,75,0.00,,,0.00,WeatherCatV1.15B25,2013-07-26 10:16:00,
2013-07-26 03:21:00,58.8,51.6,30.15,SE,132,0.0,0.0,77,0.00,,,0.00,WeatherCatV1.15B25,2013-07-26 10:21:00,
2013-07-26 03:26:00,58.4,51.2,30.15,SE,132,0.0,0.0,77,0.00,,,0.00,WeatherCatV1.15B25,2013-07-26 10:26:00,
2013-07-26 03:31:00,58.0,50.8,30.15,SE,133,0.0,0.0,77,0.00,,,0.00,WeatherCatV1.15B25,2013-07-26 10:31:00,
2013-07-26 03:36:00,57.7,50.2,30.15,SE,139,1.0,3.0,76,0.00,,,0.00,WeatherCatV1.15B25,2013-07-26 10:36:00,
2013-07-26 03:41:00,58.1,48.4,30.15,East,98,1.0,3.0,70,0.00,,,0.00,WeatherCatV1.15B25,2013-07-26 10:41:00,
2013-07-26 03:46:00,58.7,48.6,30.15,ENE,67,1.0,3.0,69,0.00,,,0.00,WeatherCatV1.15B25,2013-07-26 10:46:00,
2013-07-26 03:51:00,58.6,48.1,30.15,NE,43,1.0,2.0,68,0.00,,,0.00,WeatherCatV1.15B25,2013-07-26 10:51:00,
2013-07-26 03:56:00,58.3,48.2,30.15,NE,38,1.0,2.0,69,0.00,,,0.00,WeatherCatV1.15B25,2013-07-26 10:56:00,
2013-07-26 04:01:00,57.9,48.9,30.15,NNE,29,2.0,3.0,72,0.00,,,0.00,WeatherCatV1.15B25,2013-07-26 11:01:00,
2013-07-26 04:06:00,57.4,49.9,30.15,NE,40,2.0,4.0,76,0.00,,,0.00,WeatherCatV1.15B25,2013-07-26 11:06:00,
2013-07-26 04:11:00,56.7,49.9,30.15,NE,34,2.0,2.0,78,0.00,,,0.00,WeatherCatV1.15B25,2013-07-26 11:11:00,
2013-07-26 04:16:00,56.4,50.0,30.15,NE,34,1.0,2.0,79,0.00,,,0.00,WeatherCatV1.15B25,2013-07-26 11:16:00,
2013-07-26 04:21:00,56.1,50.0,30.16,NE,38,0.0,1.0,80,0.00,,,0.00,WeatherCatV1.15B25,2013-07-26 11:21:00,
2013-07-26 04:26:00,55.9,50.2,30.16,NE,38,2.0,2.0,81,0.00,,,0.00,WeatherCatV1.15B25,2013-07-26 11:26:00,
2013-07-26 04:31:00,55.9,50.2,30.15,NE,41,1.0,2.0,81,0.00,,,0.00,WeatherCatV1.15B25,2013-07-26 11:31:00,
2013-07-26 04:36:00,55.7,50.0,30.16,NNE,30,3.0,3.0,81,0.00,,,0.00,WeatherCatV1.15B25,2013-07-26 11:36:00,
2013-07-26 04:41:00,55.7,50.0,30.16,NW,314,1.0,4.0,81,0.00,,,0.00,WeatherCatV1.15B25,2013-07-26 11:41:00,
2013-07-26 04:46:00,56.0,49.9,30.16,NE,40,1.0,1.0,80,0.00,,,0.00,WeatherCatV1.15B25,2013-07-26 11:46:00,
2013-07-26 04:51:00,55.8,50.1,30.16,NE,40,1.0,1.0,81,0.00,,,0.00,WeatherCatV1.15B25,2013-07-26 11:51:00,
2013-07-26 04:56:00,55.5,50.1,30.16,NE,41,1.0,2.0,82,0.00,,,0.00,WeatherCatV1.15B25,2013-07-26 11:56:00,
2013-07-26 05:01:00,55.1,50.0,30.16,NE,39,1.0,2.0,83,0.00,,,0.00,WeatherCatV1.15B25,2013-07-26 12:01:00,
2013-07-26 05:06:00,54.8,49.7,30.16,NE,40,2.0,3.0,83,0.00,,,0.00,WeatherCatV1.15B25,2013-07-26 12:06:00,
2013-07-26 05:11:00,54.6,49.5,30.16,NE,37,2.0,2.0,83,0.00,,,0.00,WeatherCatV1.15B25,2013-07-26 12:11:00,
2013-07-26 05:16:00,54.6,49.5,30.16,NE,38,1.0,2.0,83,0.00,,,0.00,WeatherCatV1.15B25,2013-07-26 12:16:00,
2013-07-26 05:21:00,54.5,49.4,30.16,NE,38,0.0,1.0,83,0.00,,,0.00,WeatherCatV1.15B25,2013-07-26 12:21:00,
2013-07-26 05:26:00,54.4,49.7,30.16,NE,38,0.0,0.0,84,0.00,,,0.00,WeatherCatV1.15B25,2013-07-26 12:26:00,
2013-07-26 05:31:00,54.3,49.6,30.16,East,95,1.0,1.0,84,0.00,,,0.00,WeatherCatV1.15B25,2013-07-26 12:31:00,
2013-07-26 05:36:00,54.0,49.3,30.16,East,94,0.0,0.0,84,0.00,,,0.00,WeatherCatV1.15B25,2013-07-26 12:36:00,
2013-07-26 05:41:00,53.8,49.4,30.16,East,95,0.0,1.0,85,0.00,,,0.00,WeatherCatV1.15B25,2013-07-26 12:41:00,
2013-07-26 05:46:00,53.8,49.4,30.16,NE,47,1.0,2.0,85,0.00,,,0.00,WeatherCatV1.15B25,2013-07-26 12:46:00,
2013-07-26 05:51:00,53.7,49.3,30.16,NE,43,1.0,1.0,85,0.00,,,0.00,WeatherCatV1.15B25,2013-07-26 12:51:00,
2013-07-26 05:56:00,53.7,49.0,30.16,NE,43,1.0,1.0,84,0.00,,,0.00,WeatherCatV1.15B25,2013-07-26 12:56:00,
2013-07-26 06:01:00,53.9,49.5,30.16,NE,44,1.0,2.0,85,0.00,,,0.00,WeatherCatV1.15B25,2013-07-26 13:01:00,
2013-07-26 06:06:00,53.8,49.4,30.16,NE,35,0.0,1.0,85,0.00,,,0.00,WeatherCatV1.15B25,2013-07-26 13:06:00,
2013-07-26 06:11:00,53.6,49.2,30.17,SSE,155,0.0,1.0,85,0.00,,,0.00,WeatherCatV1.15B25,2013-07-26 13:11:00,
2013-07-26 06:16:00,53.7,49.6,30.17,SE,128,0.0,0.0,86,0.00,,,0.00,WeatherCatV1.15B25,2013-07-26 13:16:00,
2013-07-26 06:21:00,53.9,49.5,30.17,SE,129,0.0,0.0,85,0.00,,,0.00,WeatherCatV1.15B25,2013-07-26 13:21:00,
2013-07-26 06:26:00,54.0,49.6,30.17,SE,128,0.0,0.0,85,0.00,,,0.00,WeatherCatV1.15B25,2013-07-26 13:26:00,
2013-07-26 06:31:00,54.2,49.5,30.17,SE,128,0.0,0.0,84,0.00,,,0.00,WeatherCatV1.15B25,2013-07-26 13:31:00,
2013-07-26 06:36:00,54.5,49.4,30.17,SE,129,0.0,0.0,83,0.00,,,0.00,WeatherCatV1.15B25,2013-07-26 13:36:00,
2013-07-26 06:41:00,55.0,49.3,30.17,SE,128,0.0,0.0,81,0.00,,,0.00,WeatherCatV1.15B25,2013-07-26 13:41:00,
2013-07-26 06:46:00,55.3,49.2,30.18,SE,129,0.0,0.0,80,0.00,,,0.00,WeatherCatV1.15B25,2013-07-26 13:46:00,
2013-07-26 06:51:00,55.7,50.0,30.18,SE,129,0.0,0.0,81,0.00,,,0.00,WeatherCatV1.15B25,2013-07-26 13:51:00,
2013-07-26 06:56:00,56.1,50.3,30.18,SE,128,0.0,0.0,81,0.00,,,0.00,WeatherCatV1.15B25,2013-07-26 13:56:00,
2013-07-26 07:01:00,57.2,51.8,30.18,SE,129,0.0,0.0,82,0.00,,,0.00,WeatherCatV1.15B25,2013-07-26 14:01:00,
2013-07-26 07:06:00,58.9,52.4,30.18,SE,129,0.0,0.0,79,0.00,,,0.00,WeatherCatV1.15B25,2013-07-26 14:06:00,
2013-07-26 07:11:00,60.7,52.4,30.18,SE,128,0.0,0.0,74,0.00,,,0.00,WeatherCatV1.15B25,2013-07-26 14:11:00,
2013-07-26 07:16:00,62.7,51.6,30.18,SE,129,0.0,0.0,67,0.00,,,0.00,WeatherCatV1.15B25,2013-07-26 14:16:00,
2013-07-26 07:21:00,63.2,50.8,30.18,SE,129,0.0,1.0,64,0.00,,,0.00,WeatherCatV1.15B25,2013-07-26 14:21:00,
2013-07-26 07:26:00,62.4,50.9,30.18,SE,128,0.0,1.0,66,0.00,,,0.00,WeatherCatV1.15B25,2013-07-26 14:26:00,
2013-07-26 07:31:00,63.7,52.1,30.18,SE,128,0.0,0.0,66,0.00,,,0.00,WeatherCatV1.15B25,2013-07-26 14:31:00,
2013-07-26 07:36:00,65.2,52.3,30.18,SE,128,0.0,1.0,63,0.00,,,0.00,WeatherCatV1.15B25,2013-07-26 14:36:00,
2013-07-26 07:41:00,65.5,51.2,30.18,ENE,72,0.0,0.0,60,0.00,,,0.00,WeatherCatV1.15B25,2013-07-26 14:41:00,
2013-07-26 07:46:00,65.7,51.4,30.18,ENE,72,0.0,2.0,60,0.00,,,0.00,WeatherCatV1.15B25,2013-07-26 14:46:00,
2013-07-26 07:51:00,65.8,51.5,30.18,SE,131,1.0,1.0,60,0.00,,,0.00,WeatherCatV1.15B25,2013-07-26 14:51:00,
2013-07-26 07:56:00,66.0,51.7,30.19,SE,145,1.0,1.0,60,0.00,,,0.00,WeatherCatV1.15B25,2013-07-26 14:56:00,
2013-07-26 08:01:00,66.4,51.6,30.19,South,170,1.0,1.0,59,0.00,,,0.00,WeatherCatV1.15B25,2013-07-26 15:01:00,
2013-07-26 08:06:00,66.4,51.6,30.19,ESE,104,0.0,1.0,59,0.00,,,0.00,WeatherCatV1.15B25,2013-07-26 15:06:00,
2013-07-26 08:11:00,66.4,51.2,30.19,North,6,1.0,2.0,58,0.00,,,0.00,WeatherCatV1.15B25,2013-07-26 15:11:00,
2013-07-26 08:16:00,66.2,51.0,30.19,SE,126,1.0,2.0,58,0.00,,,0.00,WeatherCatV1.15B25,2013-07-26 15:16:00,
2013-07-26 08:21:00,66.0,51.3,30.19,SSW,209,0.0,2.0,59,0.00,,,0.00,WeatherCatV1.15B25,2013-07-26 15:21:00,
2013-07-26 08:26:00,65.6,51.3,30.19,SSW,208,1.0,3.0,60,0.00,,,0.00,WeatherCatV1.15B25,2013-07-26 15:26:00,
2013-07-26 08:31:00,65.3,51.5,30.19,SSE,153,2.0,3.0,61,0.00,,,0.00,WeatherCatV1.15B25,2013-07-26 15:31:00,
2013-07-26 08:36:00,66.1,51.3,30.19,ESE,118,1.0,3.0,59,0.00,,,0.00,WeatherCatV1.15B25,2013-07-26 15:36:00,
2013-07-26 08:41:00,66.6,51.8,30.19,North,11,1.0,1.0,59,0.00,,,0.00,WeatherCatV1.15B25,2013-07-26 15:41:00,
2013-07-26 08:46:00,67.1,52.3,30.19,West,259,1.0,1.0,59,0.00,,,0.00,WeatherCatV1.15B25,2013-07-26 15:46:00,
2013-07-26 08:51:00,67.3,52.0,30.19,NW,311,1.0,3.0,58,0.00,,,0.00,WeatherCatV1.15B25,2013-07-26 15:51:00,
2013-07-26 08:56:00,67.2,52.4,30.19,WNW,298,2.0,3.0,59,0.00,,,0.00,WeatherCatV1.15B25,2013-07-26 15:56:00,
2013-07-26 09:01:00,66.8,52.0,30.19,WNW,283,2.0,4.0,59,0.00,,,0.00,WeatherCatV1.15B25,2013-07-26 16:01:00,
2013-07-26 09:06:00,66.8,52.0,30.19,WNW,298,2.0,5.0,59,0.00,,,0.00,WeatherCatV1.15B25,2013-07-26 16:06:00,
2013-07-26 09:11:00,66.8,52.0,30.19,NW,308,1.0,2.0,59,0.00,,,0.00,WeatherCatV1.15B25,2013-07-26 16:11:00,
2013-07-26 09:16:00,67.7,52.4,30.19,West,264,1.0,1.0,58,0.00,,,0.00,WeatherCatV1.15B25,2013-07-26 16:16:00,
2013-07-26 09:21:00,68.0,52.2,30.19,WSW,246,2.0,3.0,57,0.00,,,0.00,WeatherCatV1.15B25,2013-07-26 16:21:00,
2013-07-26 09:26:00,68.5,53.1,30.19,ENE,68,2.0,2.0,58,0.00,,,0.00,WeatherCatV1.15B25,2013-07-26 16:26:00,
2013-07-26 09:31:00,69.0,53.1,30.20,SSW,208,2.0,3.0,57,0.00,,,0.00,WeatherCatV1.15B25,2013-07-26 16:31:00,
2013-07-26 09:36:00,69.1,53.2,30.19,SSW,203,2.0,4.0,57,0.00,,,0.00,WeatherCatV1.15B25,2013-07-26 16:36:00,
2013-07-26 09:41:00,69.7,53.8,30.19,WNW,300,1.0,2.0,57,0.00,,,0.00,WeatherCatV1.15B25,2013-07-26 16:41:00,
2013-07-26 09:46:00,69.7,53.3,30.19,NW,316,2.0,5.0,56,0.00,,,0.00,WeatherCatV1.15B25,2013-07-26 16:46:00,
2013-07-26 09:51:00,69.7,53.3,30.19,SW,224,0.0,2.0,56,0.00,,,0.00,WeatherCatV1.15B25,2013-07-26 16:51:00,
2013-07-26 09:56:00,70.1,53.7,30.19,NNW,343,4.0,4.0,56,0.00,,,0.00,WeatherCatV1.15B25,2013-07-26 16:56:00,
2013-07-26 10:01:00,69.8,52.9,30.19,WNW,288,2.0,5.0,55,0.00,,,0.00,WeatherCatV1.15B25,2013-07-26 17:01:00,
2013-07-26 10:06:00,69.9,54.0,30.19,NW,314,0.0,5.0,57,0.00,,,0.00,WeatherCatV1.15B25,2013-07-26 17:06:00,
2013-07-26 10:11:00,70.3,53.8,30.19,WNW,287,1.0,7.0,56,0.00,,,0.00,WeatherCatV1.15B25,2013-07-26 17:11:00,
2013-07-26 10:16:00,70.6,54.1,30.19,NW,311,1.0,3.0,56,0.00,,,0.00,WeatherCatV1.15B25,2013-07-26 17:16:00,
2013-07-26 10:21:00,70.8,54.3,30.19,North,1,6.0,6.0,56,0.00,,,0.00,WeatherCatV1.15B25,2013-07-26 17:21:00,
2013-07-26 10:26:00,70.9,53.4,30.19,WSW,256,5.0,8.0,54,0.00,,,0.00,WeatherCatV1.15B25,2013-07-26 17:26:00,
2013-07-26 10:31:00,70.7,53.2,30.19,WNW,285,7.0,7.0,54,0.00,,,0.00,WeatherCatV1.15B25,2013-07-26 17:31:00,
2013-07-26 10:36:00,70.7,53.7,30.19,NNW,331,3.0,8.0,55,0.00,,,0.00,WeatherCatV1.15B25,2013-07-26 17:36:00,
2013-07-26 10:41:00,71.0,53.5,30.19,East,84,1.0,6.0,54,0.00,,,0.00,WeatherCatV1.15B25,2013-07-26 17:41:00,
2013-07-26 10:46:00,71.3,53.8,30.19,WNW,298,2.0,7.0,54,0.00,,,0.00,WeatherCatV1.15B25,2013-07-26 17:46:00,
2013-07-26 10:51:00,71.4,53.9,30.19,NNW,340,3.0,6.0,54,0.00,,,0.00,WeatherCatV1.15B25,2013-07-26 17:51:00,
2013-07-26 10:56:00,71.7,54.7,30.18,West,266,3.0,5.0,55,0.00,,,0.00,WeatherCatV1.15B25,2013-07-26 17:56:00,
2013-07-26 11:01:00,72.0,54.4,30.18,WSW,241,4.0,4.0,54,0.00,,,0.00,WeatherCatV1.15B25,2013-07-26 18:01:00,
2013-07-26 11:06:00,71.9,54.3,30.18,NW,311,2.0,4.0,54,0.00,,,0.00,WeatherCatV1.15B25,2013-07-26 18:06:00,
2013-07-26 11:11:00,72.5,54.4,30.18,West,274,0.0,3.0,53,0.00,,,0.00,WeatherCatV1.15B25,2013-07-26 18:11:00,
2013-07-26 11:16:00,73.1,53.9,30.18,SSW,210,7.0,9.0,51,0.00,,,0.00,WeatherCatV1.15B25,2013-07-26 18:16:00,
2013-07-26 11:21:00,73.1,55.4,30.18,West,260,2.0,5.0,54,0.00,,,0.00,WeatherCatV1.15B25,2013-07-26 18:21:00,
2013-07-26 11:26:00,73.7,54.4,30.18,WSW,241,5.0,7.0,51,0.00,,,0.00,WeatherCatV1.15B25,2013-07-26 18:26:00,
2013-07-26 11:31:00,73.7,55.0,30.18,West,276,1.0,3.0,52,0.00,,,0.00,WeatherCatV1.15B25,2013-07-26 18:31:00,
2013-07-26 11:36:00,73.8,55.1,30.18,WSW,252,1.0,7.0,52,0.00,,,0.00,WeatherCatV1.15B25,2013-07-26 18:36:00,
2013-07-26 11:41:00,74.0,54.7,30.18,West,276,2.0,6.0,51,0.00,,,0.00,WeatherCatV1.15B25,2013-07-26 18:41:00,
2013-07-26 11:46:00,74.4,55.1,30.17,NW,305,4.0,6.0,51,0.00,,,0.00,WeatherCatV1.15B25,2013-07-26 18:46:00,
2013-07-26 11:51:00,74.2,54.9,30.18,West,260,4.0,5.0,51,0.00,,,0.00,WeatherCatV1.15B25,2013-07-26 18:51:00,
2013-07-26 11:56:00,73.9,54.6,30.17,West,263,1.0,6.0,51,0.00,,,0.00,WeatherCatV1.15B25,2013-07-26 18:56:00,
2013-07-26 12:01:00,73.8,54.5,30.18,WNW,290,6.0,10.0,51,0.00,,,0.00,WeatherCatV1.15B25,2013-07-26 19:01:00,
2013-07-26 12:06:00,73.6,54.9,30.17,WNW,293,4.0,5.0,52,0.00,,,0.00,WeatherCatV1.15B25,2013-07-26 19:06:00,
2013-07-26 12:11:00,74.4,54.5,30.17,WNW,298,3.0,10.0,50,0.00,,,0.00,WeatherCatV1.15B25,2013-07-26 19:11:00,
2013-07-26 12:16:00,74.6,54.7,30.17,South,191,0.0,8.0,50,0.00,,,0.00,WeatherCatV1.15B25,2013-07-26 19:16:00,
2013-07-26 12:21:00,75.2,54.1,30.17,West,270,5.0,9.0,48,0.00,,,0.00,WeatherCatV1.15B25,2013-07-26 19:21:00,
2013-07-26 12:26:00,75.1,54.6,30.17,West,267,9.0,13.0,49,0.00,,,0.00,WeatherCatV1.15B25,2013-07-26 19:26:00,
2013-07-26 12:31:00,75.1,55.2,30.17,West,280,11.0,11.0,50,0.00,,,0.00,WeatherCatV1.15B25,2013-07-26 19:31:00,
2013-07-26 12:36:00,75.3,55.4,30.17,WNW,291,5.0,8.0,50,0.00,,,0.00,WeatherCatV1.15B25,2013-07-26 19:36:00,
2013-07-26 12:41:00,75.8,54.7,30.17,NNW,329,6.0,6.0,48,0.00,,,0.00,WeatherCatV1.15B25,2013-07-26 19:41:00,
2013-07-26 12:46:00,75.6,54.5,30.17,North,356,1.0,7.0,48,0.00,,,0.00,WeatherCatV1.15B25,2013-07-26 19:46:00,
2013-07-26 12:51:00,76.1,55.5,30.17,West,279,5.0,6.0,49,0.00,,,0.00,WeatherCatV1.15B25,2013-07-26 19:51:00,
2013-07-26 12:56:00,76.2,55.1,30.17,WNW,288,2.0,6.0,48,0.00,,,0.00,WeatherCatV1.15B25,2013-07-26 19:56:00,
2013-07-26 13:01:00,76.8,53.8,30.17,North,354,2.0,8.0,45,0.00,,,0.00,WeatherCatV1.15B25,2013-07-26 20:01:00,
2013-07-26 13:06:00,77.0,54.0,30.17,North,355,7.0,9.0,45,0.00,,,0.00,WeatherCatV1.15B25,2013-07-26 20:06:00,
2013-07-26 13:11:00,77.6,54.6,30.17,NW,314,7.0,9.0,45,0.00,,,0.00,WeatherCatV1.15B25,2013-07-26 20:11:00,
2013-07-26 13:16:00,77.6,54.6,30.17,NW,307,4.0,7.0,45,0.00,,,0.00,WeatherCatV1.15B25,2013-07-26 20:16:00,
2013-07-26 13:21:00,77.8,54.7,30.17,West,262,3.0,4.0,45,0.00,,,0.00,WeatherCatV1.15B25,2013-07-26 20:21:00,
2013-07-26 13:26:00,77.9,53.6,30.17,NNE,16,1.0,7.0,43,0.00,,,0.00,WeatherCatV1.15B25,2013-07-26 20:26:00,
2013-07-26 13:31:00,78.8,53.1,30.17,NNE,21,4.0,5.0,41,0.00,,,0.00,WeatherCatV1.15B25,2013-07-26 20:31:00,
2013-07-26 13:36:00,78.7,54.3,30.17,NNW,343,1.0,2.0,43,0.00,,,0.00,WeatherCatV1.15B25,2013-07-26 20:36:00,
2013-07-26 13:41:00,78.4,51.4,30.17,North,352,4.0,7.0,39,0.00,,,0.00,WeatherCatV1.15B25,2013-07-26 20:41:00,
2013-07-26 13:46:00,78.8,51.7,30.17,NNW,339,4.0,10.0,39,0.00,,,0.00,WeatherCatV1.15B25,2013-07-26 20:46:00,
2013-07-26 13:51:00,79.1,51.3,30.16,West,276,3.0,8.0,38,0.00,,,0.00,WeatherCatV1.15B25,2013-07-26 20:51:00,
2013-07-26 13:56:00,79.0,51.9,30.16,NW,311,10.0,11.0,39,0.00,,,0.00,WeatherCatV1.15B25,2013-07-26 20:56:00,
2013-07-26 14:01:00,78.5,52.8,30.16,West,280,5.0,6.0,41,0.00,,,0.00,WeatherCatV1.15B25,2013-07-26 21:01:00,
2013-07-26 14:06:00,79.2,51.4,30.16,West,271,6.0,8.0,38,0.00,,,0.00,WeatherCatV1.15B25,2013-07-26 21:06:00,
2013-07-26 14:11:00,79.3,50.7,30.16,WNW,283,5.0,8.0,37,0.00,,,0.00,WeatherCatV1.15B25,2013-07-26 21:11:00,
2013-07-26 14:16:00,79.7,49.6,30.16,WNW,285,5.0,6.0,35,0.00,,,0.00,WeatherCatV1.15B25,2013-07-26 21:16:00,
2013-07-26 14:21:00,80.0,51.4,30.16,WNW,301,3.0,5.0,37,0.00,,,0.00,WeatherCatV1.15B25,2013-07-26 21:21:00,
2013-07-26 14:26:00,80.1,49.2,30.16,West,281,6.0,8.0,34,0.00,,,0.00,WeatherCatV1.15B25,2013-07-26 21:26:00,
2013-07-26 14:31:00,79.8,49.7,30.16,NW,305,4.0,6.0,35,0.00,,,0.00,WeatherCatV1.15B25,2013-07-26 21:31:00,
2013-07-26 14:36:00,80.2,50.0,30.16,North,351,4.0,8.0,35,0.00,,,0.00,WeatherCatV1.15B25,2013-07-26 21:36:00,
2013-07-26 14:41:00,80.7,52.0,30.16,WNW,293,5.0,5.0,37,0.00,,,0.00,WeatherCatV1.15B25,2013-07-26 21:41:00,
2013-07-26 14:46:00,80.7,52.7,30.16,West,277,3.0,8.0,38,0.00,,,0.00,WeatherCatV1.15B25,2013-07-26 21:46:00,
2013-07-26 14:51:00,80.8,52.1,30.16,West,262,5.0,8.0,37,0.00,,,0.00,WeatherCatV1.15B25,2013-07-26 21:51:00,
2013-07-26 14:56:00,80.4,53.1,30.16,WNW,297,5.0,8.0,39,0.00,,,0.00,WeatherCatV1.15B25,2013-07-26 21:56:00,
2013-07-26 15:01:00,80.4,53.1,30.16,SW,228,8.0,8.0,39,0.00,,,0.00,WeatherCatV1.15B25,2013-07-26 22:01:00,
2013-07-26 15:06:00,80.5,54.6,30.16,WNW,293,6.0,7.0,41,0.00,,,0.00,WeatherCatV1.15B25,2013-07-26 22:06:00,
2013-07-26 15:11:00,80.5,55.3,30.16,NW,311,3.0,7.0,42,0.00,,,0.00,WeatherCatV1.15B25,2013-07-26 22:11:00,
2013-07-26 15:16:00,80.9,55.0,30.16,NNW,347,3.0,12.0,41,0.00,,,0.00,WeatherCatV1.15B25,2013-07-26 22:16:00,
2013-07-26 15:21:00,81.0,55.7,30.16,West,272,4.0,10.0,42,0.00,,,0.00,WeatherCatV1.15B25,2013-07-26 22:21:00,
2013-07-26 15:26:00,80.9,55.6,30.16,NW,307,4.0,8.0,42,0.00,,,0.00,WeatherCatV1.15B25,2013-07-26 22:26:00,
2013-07-26 15:31:00,80.7,56.1,30.16,ENE,60,2.0,7.0,43,0.00,,,0.00,WeatherCatV1.15B25,2013-07-26 22:31:00,
2013-07-26 15:36:00,81.7,55.7,30.15,NNW,340,5.0,11.0,41,0.00,,,0.00,WeatherCatV1.15B25,2013-07-26 22:36:00,
2013-07-26 15:41:00,82.5,56.4,30.15,NW,322,3.0,4.0,41,0.00,,,0.00,WeatherCatV1.15B25,2013-07-26 22:41:00,
2013-07-26 15:46:00,81.8,55.1,30.15,NNE,19,3.0,8.0,40,0.00,,,0.00,WeatherCatV1.15B25,2013-07-26 22:46:00,
2013-07-26 15:51:00,82.0,55.9,30.15,NNE,12,4.0,8.0,41,0.00,,,0.00,WeatherCatV1.15B25,2013-07-26 22:51:00,
2013-07-26 15:56:00,81.8,55.8,30.15,West,276,7.0,9.0,41,0.00,,,0.00,WeatherCatV1.15B25,2013-07-26 22:56:00,
2013-07-26 16:01:00,81.8,55.1,30.15,NNW,334,4.0,10.0,40,0.00,,,0.00,WeatherCatV1.15B25,2013-07-26 23:01:00,
2013-07-26 16:06:00,81.9,55.2,30.15,WNW,301,4.0,11.0,40,0.00,,,0.00,WeatherCatV1.15B25,2013-07-26 23:06:00,
2013-07-26 16:11:00,82.1,55.4,30.15,NE,36,4.0,10.0,40,0.00,,,0.00,WeatherCatV1.15B25,2013-07-26 23:11:00,
2013-07-26 16:16:00,82.1,56.7,30.15,NW,305,5.0,5.0,42,0.00,,,0.00,WeatherCatV1.15B25,2013-07-26 23:16:00,
2013-07-26 16:21:00,81.4,54.0,30.15,NNW,335,8.0,11.0,39,0.00,,,0.00,WeatherCatV1.15B25,2013-07-26 23:21:00,
2013-07-26 16:26:00,81.8,54.4,30.15,NW,304,4.0,8.0,39,0.00,,,0.00,WeatherCatV1.15B25,2013-07-26 23:26:00,
2013-07-26 16:31:00,81.6,53.5,30.15,North,356,1.0,10.0,38,0.00,,,0.00,WeatherCatV1.15B25,2013-07-26 23:31:00,
2013-07-26 16:36:00,82.1,53.2,30.15,West,278,6.0,10.0,37,0.00,,,0.00,WeatherCatV1.15B25,2013-07-26 23:36:00,
2013-07-26 16:41:00,81.8,53.0,30.14,NW,311,7.0,9.0,37,0.00,,,0.00,WeatherCatV1.15B25,2013-07-26 23:41:00,
2013-07-26 16:46:00,82.0,53.1,30.14,WSW,257,3.0,3.0,37,0.00,,,0.00,WeatherCatV1.15B25,2013-07-26 23:46:00,
2013-07-26 16:51:00,81.7,53.6,30.14,West,269,3.0,10.0,38,0.00,,,0.00,WeatherCatV1.15B25,2013-07-26 23:51:00,
2013-07-26 16:56:00,82.2,54.0,30.14,NNW,337,4.0,7.0,38,0.00,,,0.00,WeatherCatV1.15B25,2013-07-26 23:56:00,
2013-07-26 17:01:00,83.5,52.9,30.14,NW,305,10.0,10.0,35,0.00,,,0.00,WeatherCatV1.15B25,2013-07-27 00:01:00,
2013-07-26 17:06:00,83.3,51.2,30.14,North,352,4.0,5.0,33,0.00,,,0.00,WeatherCatV1.15B25,2013-07-27 00:06:00,
2013-07-26 17:11:00,82.8,50.7,30.14,WNW,297,5.0,8.0,33,0.00,,,0.00,WeatherCatV1.15B25,2013-07-27 00:11:00,
2013-07-26 17:16:00,83.0,50.9,30.13,NNE,13,5.0,5.0,33,0.00,,,0.00,WeatherCatV1.15B25,2013-07-27 00:16:00,
2013-07-26 17:21:00,83.3,50.3,30.13,WNW,293,4.0,7.0,32,0.00,,,0.00,WeatherCatV1.15B25,2013-07-27 00:21:00,
2013-07-26 17:26:00,82.9,49.1,30.14,North,352,8.0,11.0,31,0.00,,,0.00,WeatherCatV1.15B25,2013-07-27 00:26:00,
2013-07-26 17:31:00,82.8,49.0,30.13,NW,307,4.0,11.0,31,0.00,,,0.00,WeatherCatV1.15B25,2013-07-27 00:31:00,
2013-07-26 17:36:00,82.5,50.5,30.13,NW,318,1.0,10.0,33,0.00,,,0.00,WeatherCatV1.15B25,2013-07-27 00:36:00,
2013-07-26 17:42:00,82.3,51.1,30.13,WNW,297,5.0,10.0,34,0.00,,,0.00,WeatherCatV1.15B25,2013-07-27 00:42:00,
2013-07-26 17:47:00,82.4,48.7,30.13,NNE,13,7.0,7.0,31,0.00,,,0.00,WeatherCatV1.15B25,2013-07-27 00:47:00,
2013-07-26 17:52:00,82.4,46.9,30.13,NW,307,3.0,7.0,29,0.00,,,0.00,WeatherCatV1.15B25,2013-07-27 00:52:00,
2013-07-26 17:57:00,82.6,44.2,30.13,NNE,21,2.0,9.0,26,0.00,,,0.00,WeatherCatV1.15B25,2013-07-27 00:57:00,
2013-07-26 18:02:00,82.4,44.0,30.13,WSW,246,2.0,10.0,26,0.00,,,0.00,WeatherCatV1.15B25,2013-07-27 01:02:00,
2013-07-26 18:07:00,82.1,42.8,30.12,WSW,257,1.0,8.0,25,0.00,,,0.00,WeatherCatV1.15B25,2013-07-27 01:07:00,
2013-07-26 18:12:00,82.2,43.9,30.12,WNW,299,3.0,8.0,26,0.00,,,0.00,WeatherCatV1.15B25,2013-07-27 01:12:00,
2013-07-26 18:17:00,81.9,44.6,30.12,NW,305,2.0,6.0,27,0.00,,,0.00,WeatherCatV1.15B25,2013-07-27 01:17:00,
2013-07-26 18:22:00,81.9,43.6,30.12,NW,323,3.0,10.0,26,0.00,,,0.00,WeatherCatV1.15B25,2013-07-27 01:22:00,
2013-07-26 18:27:00,81.6,42.3,30.12,NW,326,5.0,8.0,25,0.00,,,0.00,WeatherCatV1.15B25,2013-07-27 01:27:00,
2013-07-26 18:32:00,81.6,43.4,30.12,WNW,288,5.0,7.0,26,0.00,,,0.00,WeatherCatV1.15B25,2013-07-27 01:32:00,
2013-07-26 18:37:00,81.1,44.9,30.12,North,6,2.0,4.0,28,0.00,,,0.00,WeatherCatV1.15B25,2013-07-27 01:37:00,
2013-07-26 18:42:00,81.3,45.1,30.12,NNW,330,1.0,8.0,28,0.00,,,0.00,WeatherCatV1.15B25,2013-07-27 01:42:00,
2013-07-26 18:47:00,81.1,44.9,30.12,NNW,328,2.0,6.0,28,0.00,,,0.00,WeatherCatV1.15B25,2013-07-27 01:47:00,
2013-07-26 18:52:00,81.1,45.8,30.12,WNW,296,5.0,8.0,29,0.00,,,0.00,WeatherCatV1.15B25,2013-07-27 01:52:00,
2013-07-26 18:57:00,81.0,46.6,30.12,NNW,338,2.0,3.0,30,0.00,,,0.00,WeatherCatV1.15B25,2013-07-27 01:57:00,
2013-07-26 19:02:00,81.6,47.1,30.12,NNW,329,2.0,7.0,30,0.00,,,0.00,WeatherCatV1.15B25,2013-07-27 02:02:00,
2013-07-26 19:07:00,81.6,47.1,30.12,NW,314,2.0,6.0,30,0.00,,,0.00,WeatherCatV1.15B25,2013-07-27 02:07:00,
2013-07-26 19:12:00,82.1,48.4,30.12,NW,325,2.0,2.0,31,0.00,,,0.00,WeatherCatV1.15B25,2013-07-27 02:12:00,
2013-07-26 19:17:00,81.8,47.3,30.12,North,11,3.0,6.0,30,0.00,,,0.00,WeatherCatV1.15B25,2013-07-27 02:17:00,
2013-07-26 19:22:00,81.9,48.3,30.12,WNW,297,3.0,4.0,31,0.00,,,0.00,WeatherCatV1.15B25,2013-07-27 02:22:00,
2013-07-26 19:27:00,81.3,46.9,30.12,NNE,26,4.0,10.0,30,0.00,,,0.00,WeatherCatV1.15B25,2013-07-27 02:27:00,
2013-07-26 19:32:00,80.3,46.0,30.12,North,11,7.0,7.0,30,0.00,,,0.00,WeatherCatV1.15B25,2013-07-27 02:32:00,
2013-07-26 19:37:00,79.7,46.4,30.12,NNE,33,3.0,4.0,31,0.00,,,0.00,WeatherCatV1.15B25,2013-07-27 02:37:00,
2013-07-26 19:42:00,79.4,45.2,30.12,NE,48,3.0,10.0,30,0.00,,,0.00,WeatherCatV1.15B25,2013-07-27 02:42:00,
2013-07-26 19:47:00,78.7,43.7,30.11,North,8,5.0,7.0,29,0.00,,,0.00,WeatherCatV1.15B25,2013-07-27 02:47:00,
2013-07-26 19:52:00,77.8,41.1,30.12,North,8,6.0,9.0,27,0.00,,,0.00,WeatherCatV1.15B25,2013-07-27 02:52:00,
2013-07-26 19:57:00,77.3,40.7,30.12,NNE,21,2.0,4.0,27,0.00,,,0.00,WeatherCatV1.15B25,2013-07-27 02:57:00,
2013-07-26 20:02:00,76.9,40.4,30.12,NNE,16,3.0,10.0,27,0.00,,,0.00,WeatherCatV1.15B25,2013-07-27 03:02:00,
2013-07-26 20:07:00,76.3,40.8,30.12,NE,52,5.0,7.0,28,0.00,,,0.00,WeatherCatV1.15B25,2013-07-27 03:07:00,
2013-07-26 20:12:00,75.8,41.3,30.12,NNE,28,0.0,4.0,29,0.00,,,0.00,WeatherCatV1.15B25,2013-07-27 03:12:00,
2013-07-26 20:17:00,75.5,41.0,30.12,NW,319,2.0,4.0,29,0.00,,,0.00,WeatherCatV1.15B25,2013-07-27 03:17:00,
2013-07-26 20:22:00,74.9,41.4,30.12,NNE,32,1.0,3.0,30,0.00,,,0.00,WeatherCatV1.15B25,2013-07-27 03:22:00,
2013-07-26 20:27:00,74.4,42.6,30.12,SSE,163,3.0,9.0,32,0.00,,,0.00,WeatherCatV1.15B25,2013-07-27 03:27:00,
2013-07-26 20:32:00,73.6,43.5,30.12,NW,316,7.0,15.0,34,0.00,,,0.00,WeatherCatV1.15B25,2013-07-27 03:32:00,
2013-07-26 20:37:00,73.0,43.0,30.11,WNW,292,7.0,12.0,34,0.00,,,0.00,WeatherCatV1.15B25,2013-07-27 03:37:00,
2013-07-26 20:42:00,72.6,41.8,30.12,NW,316,5.0,10.0,33,0.00,,,0.00,WeatherCatV1.15B25,2013-07-27 03:42:00,
2013-07-26 20:47:00,72.3,41.6,30.12,NNE,28,3.0,9.0,33,0.00,,,0.00,WeatherCatV1.15B25,2013-07-27 03:47:00,
2013-07-26 20:52:00,72.1,42.9,30.12,NNW,335,9.0,11.0,35,0.00,,,0.00,WeatherCatV1.15B25,2013-07-27 03:52:00,
2013-07-26 20:57:00,71.7,44.0,30.12,NNW,341,5.0,13.0,37,0.00,,,0.00,WeatherCatV1.15B25,2013-07-27 03:57:00,
2013-07-26 21:01:00,71.3,45.1,30.12,North,11,7.0,10.0,39,0.00,,,0.00,WeatherCatV1.15B25,2013-07-27 04:01:00,
2013-07-26 21:06:00,70.8,44.6,30.13,North,11,5.0,11.0,39,0.00,,,0.00,WeatherCatV1.15B25,2013-07-27 04:06:00,
2013-07-26 21:11:00,70.5,45.0,30.13,NNE,26,10.0,11.0,40,0.00,,,0.00,WeatherCatV1.15B25,2013-07-27 04:11:00,
2013-07-26 21:16:00,70.1,44.6,30.14,North,11,7.0,8.0,40,0.00,,,0.00,WeatherCatV1.15B25,2013-07-27 04:16:00,
2013-07-26 21:21:00,69.8,44.4,30.14,NW,326,5.0,9.0,40,0.00,,,0.00,WeatherCatV1.15B25,2013-07-27 04:21:00,
2013-07-26 21:26:00,69.6,44.2,30.14,North,350,5.0,7.0,40,0.00,,,0.00,WeatherCatV1.15B25,2013-07-27 04:26:00,
2013-07-26 21:31:00,69.4,43.4,30.14,NNE,26,7.0,9.0,39,0.00,,,0.00,WeatherCatV1.15B25,2013-07-27 04:31:00,
2013-07-26 21:36:00,69.4,42.7,30.14,NNE,21,1.0,7.0,38,0.00,,,0.00,WeatherCatV1.15B25,2013-07-27 04:36:00,
2013-07-26 21:41:00,69.4,43.4,30.14,NE,50,4.0,13.0,39,0.00,,,0.00,WeatherCatV1.15B25,2013-07-27 04:41:00,
2013-07-26 21:46:00,69.5,42.8,30.15,WNW,285,8.0,14.0,38,0.00,,,0.00,WeatherCatV1.15B25,2013-07-27 04:46:00,
2013-07-26 21:51:00,69.6,43.5,30.15,North,6,8.0,8.0,39,0.00,,,0.00,WeatherCatV1.15B25,2013-07-27 04:51:00,
2013-07-26 21:56:00,69.4,43.4,30.15,NE,42,7.0,13.0,39,0.00,,,0.00,WeatherCatV1.15B25,2013-07-27 04:56:00,
2013-07-26 22:01:00,69.2,42.5,30.15,NE,44,10.0,11.0,38,0.00,,,0.00,WeatherCatV1.15B25,2013-07-27 05:01:00,
2013-07-26 22:06:00,69.0,43.0,30.15,NNE,22,3.0,5.0,39,0.00,,,0.00,WeatherCatV1.15B25,2013-07-27 05:06:00,
2013-07-26 22:11:00,68.9,42.2,30.15,NNE,26,4.0,10.0,38,0.00,,,0.00,WeatherCatV1.15B25,2013-07-27 05:11:00,
2013-07-26 22:16:00,68.8,42.1,30.15,NE,46,8.0,12.0,38,0.00,,,0.00,WeatherCatV1.15B25,2013-07-27 05:16:00,
2013-07-26 22:21:00,68.7,42.7,30.15,North,352,3.0,10.0,39,0.00,,,0.00,WeatherCatV1.15B25,2013-07-27 05:21:00,
2013-07-26 22:26:00,68.5,43.9,30.15,NNW,337,1.0,12.0,41,0.00,,,0.00,WeatherCatV1.15B25,2013-07-27 05:26:00,
2013-07-26 22:31:00,68.2,44.2,30.15,NNW,339,6.0,9.0,42,0.00,,,0.00,WeatherCatV1.15B25,2013-07-27 05:31:00,
2013-07-26 22:36:00,68.0,43.4,30.15,NNE,18,3.0,9.0,41,0.00,,,0.00,WeatherCatV1.15B25,2013-07-27 05:36:00,
2013-07-26 22:41:00,67.7,43.1,30.15,North,4,4.0,10.0,41,0.00,,,0.00,WeatherCatV1.15B25,2013-07-27 05:41:00,
2013-07-26 22:46:00,67.6,42.4,30.16,North,356,4.0,6.0,40,0.00,,,0.00,WeatherCatV1.15B25,2013-07-27 05:46:00,
2013-07-26 22:51:00,67.3,42.1,30.15,NE,53,2.0,6.0,40,0.00,,,0.00,WeatherCatV1.15B25,2013-07-27 05:51:00,
2013-07-26 22:56:00,67.2,41.4,30.15,NNW,347,5.0,9.0,39,0.00,,,0.00,WeatherCatV1.15B25,2013-07-27 05:56:00,
2013-07-26 23:01:00,67.2,42.1,30.15,NNW,335,5.0,8.0,40,0.00,,,0.00,WeatherCatV1.15B25,2013-07-27 06:01:00,
2013-07-26 23:06:00,67.0,43.8,30.16,ENE,69,10.0,12.0,43,0.00,,,0.00,WeatherCatV1.15B25,2013-07-27 06:06:00,
2013-07-26 23:11:00,66.5,43.9,30.16,NNE,17,8.0,10.0,44,0.00,,,0.00,WeatherCatV1.15B25,2013-07-27 06:11:00,
2013-07-26 23:16:00,66.2,44.2,30.16,NE,34,3.0,8.0,45,0.00,,,0.00,WeatherCatV1.15B25,2013-07-27 06:16:00,
2013-07-26 23:21:00,66.0,44.0,30.16,NNE,13,6.0,10.0,45,0.00,,,0.00,WeatherCatV1.15B25,2013-07-27 06:21:00,
2013-07-26 23:26:00,65.9,43.4,30.16,NE,44,5.0,11.0,44,0.00,,,0.00,WeatherCatV1.15B25,2013-07-27 06:26:00,
2013-07-26 23:31:00,65.8,42.7,30.16,NE,38,7.0,7.0,43,0.00,,,0.00,WeatherCatV1.15B25,2013-07-27 06:31:00,
2013-07-26 23:36:00,66.0,41.6,30.16,North,8,5.0,9.0,41,0.00,,,0.00,WeatherCatV1.15B25,2013-07-27 06:36:00,
2013-07-26 23:41:00,66.2,41.2,30.17,NNE,19,5.0,5.0,40,0.00,,,0.00,WeatherCatV1.15B25,2013-07-27 06:41:00,
2013-07-26 23:46:00,66.4,41.3,30.17,NW,316,3.0,5.0,40,0.00,,,0.00,WeatherCatV1.15B25,2013-07-27 06:46:00,
2013-07-26 23:51:00,66.3,41.2,30.17,North,9,1.0,2.0,40,0.00,,,0.00,WeatherCatV1.15B25,2013-07-27 06:51:00,
2013-07-26 23:56:00,66.2,41.2,30.17,NE,43,5.0,7.0,40,0.00,,,0.00,WeatherCatV1.15B25,2013-07-27 06:56:00,